Weather History for KMQB - February, 2012

Change the Weather History Date:

Sunday, February 12, 2012

  Actual Average (KBRL) Record (KBRL)
Temperature  
Mean Temperature 25 °F 29 °F  
Max Temperature 36 °F 38 °F 70 °F (1990)
Min Temperature 14 °F 20 °F -21 °F (1899)
Degree Days  
Heating Degree Days 40 36  
Month to date heating degree days 446  
Since 1 July heating degree days 3847  
Cooling Degree Days 0 0  
Month to date cooling degree days 0  
Year to date cooling degree days 0  
Moisture  
Dew Point 7 °F    
Average Humidity 51    
Maximum Humidity 73    
Minimum Humidity 25    
Precipitation  
Precipitation 0.00 in 0.05 in 0.92 in (1949)
Month to date precipitation 0.59  
Year to date precipitation 1.83  
Sea Level Pressure  
Sea Level Pressure 30.47 in    
Wind  
Wind Speed 12 mph (WNW)    
Max Wind Speed 20 mph    
Max Gust Speed 28 mph    
Visibility 10 miles    
Events      
T = Trace of Precipitation, MM = Missing Value Source: NWS Daily Summary

Daily Weather History Graph

Daily Weather History Graph

Search for Another Location

Airport or City:

Trip Planner

Search our weather history database for the weather conditions in past years. The results will help you decide how hot, cold, wet, or windy it might be!

Date:

Astronomy

Feb. 12, 2012 Rise Set
Actual Time 7:00 AM CST 5:33 PM CST
Civil Twilight 6:32 AM CST 6:01 PM CST
Nautical Twilight 6:00 AM CST 6:33 PM CST
Astronomical Twilight 5:28 AM CST 7:05 PM CST
Moon 11:33 PM CST (2/12) 9:17 AM CST (2/12)
Length of Visible Light 11h 29m
Length of Day
10h 32m
Waning Gibbous, 72% of the Moon is Illuminated
Feb 12
Waning Gibbous
Feb 14
Last Quarter
Feb 21
New
Feb 29
First Quarter
Mar 8
Full

Hourly Weather History & Observations

Time (CST) Temp. Windchill Dew Point Humidity Pressure Visibility Wind Dir Wind Speed Gust Speed Precip Events Conditions
12:15 AM 16.5 °F 3.0 °F 8.6 °F 71% 30.51 in 10.0 mi WNW 12.7 mph - N/A   Clear
12:35 AM 16.3 °F 4.1 °F 8.4 °F 71% 30.50 in 10.0 mi WNW 10.4 mph - N/A   Clear
12:55 AM 15.8 °F 4.2 °F 8.4 °F 73% 30.50 in 10.0 mi WNW 9.2 mph - N/A   Clear
1:15 AM 16.2 °F 4.7 °F 8.4 °F 72% 30.50 in 10.0 mi WNW 9.2 mph - N/A   Clear
1:35 AM 16.2 °F 3.9 °F 8.2 °F 71% 30.49 in 10.0 mi WNW 10.4 mph - N/A   Clear
1:55 AM 16.7 °F 3.2 °F 7.7 °F 68% 30.49 in 10.0 mi WNW 12.7 mph - N/A   Clear
2:15 AM 16.7 °F 3.8 °F 7.5 °F 67% 30.49 in 10.0 mi WNW 11.5 mph - N/A   Clear
2:35 AM 16.7 °F 3.2 °F 7.5 °F 67% 30.49 in 10.0 mi West 12.7 mph - N/A   Clear
2:55 AM 16.7 °F 3.2 °F 6.8 °F 65% 30.48 in 10.0 mi WNW 12.7 mph - N/A   Clear
3:15 AM 16.5 °F 3.6 °F 7.2 °F 67% 30.49 in 10.0 mi WNW 11.5 mph - N/A   Clear
3:35 AM 16.3 °F 3.4 °F 7.2 °F 67% 30.49 in 10.0 mi West 11.5 mph - N/A   Clear
3:55 AM 16.7 °F 3.8 °F 6.6 °F 65% 30.50 in 10.0 mi WNW 11.5 mph - N/A   Clear
4:15 AM 15.6 °F 1.2 °F 7.7 °F 71% 30.50 in 10.0 mi West 13.8 mph - N/A   Clear
4:35 AM 15.4 °F 1.6 °F 7.3 °F 70% 30.50 in 10.0 mi WNW 12.7 mph - N/A   Clear
4:55 AM 15.3 °F 0.8 °F 7.2 °F 70% 30.51 in 10.0 mi West 13.8 mph - N/A   Clear
5:15 AM 14.9 °F -0.8 °F 6.8 °F 70% 30.51 in 10.0 mi West 16.1 mph - N/A   Clear
5:35 AM 14.7 °F 0.1 °F 6.8 °F 71% 30.51 in 10.0 mi West 13.8 mph - N/A   Clear
5:55 AM 14.5 °F 0.5 °F 6.6 °F 71% 30.52 in 10.0 mi West 12.7 mph - N/A   Clear
6:15 AM 14.7 °F -0.5 °F 6.3 °F 69% 30.52 in 10.0 mi West 15.0 mph - N/A   Clear
6:35 AM 14.4 °F 0.9 °F 5.9 °F 69% 30.53 in 10.0 mi West 11.5 mph - N/A   Clear
6:55 AM 14.0 °F 0.5 °F 5.9 °F 70% 30.53 in 10.0 mi West 11.5 mph - N/A   Clear
7:15 AM 14.5 °F 0.5 °F 6.3 °F 70% 30.52 in 10.0 mi WNW 12.7 mph - N/A   Clear
7:35 AM 15.4 °F 1.6 °F 6.3 °F 67% 30.53 in 10.0 mi West 12.7 mph - N/A   Clear
7:55 AM 16.5 °F 1.3 °F 6.1 °F 64% 30.53 in 10.0 mi West 16.1 mph - N/A   Clear
8:15 AM 17.6 °F 3.7 °F 6.3 °F 61% 30.53 in 10.0 mi WNW 13.8 mph - N/A   Clear
8:35 AM 19.2 °F 4.7 °F 6.3 °F 57% 30.53 in 10.0 mi WNW 16.1 mph - N/A   Clear
8:55 AM 20.3 °F 5.2 °F 6.4 °F 55% 30.53 in 10.0 mi WNW 18.4 mph - N/A   Clear
9:15 AM 21.6 °F 7.3 °F 5.5 °F 50% 30.53 in 10.0 mi WNW 17.3 mph 21.9 mph N/A   Clear
9:35 AM 23.5 °F 9.0 °F 4.1 °F 43% 30.53 in 10.0 mi NW 19.6 mph - N/A   Clear
9:55 AM 24.6 °F 10.5 °F 3.2 °F 40% 30.52 in 10.0 mi NW 19.6 mph 27.6 mph N/A   Clear
10:15 AM 25.5 °F 12.0 °F 4.1 °F 40% 30.50 in 10.0 mi NW 18.4 mph - N/A   Clear
10:35 AM 27.1 °F 14.9 °F 4.5 °F 38% 30.50 in 10.0 mi NW 16.1 mph 23.0 mph N/A   Clear
10:55 AM 28.2 °F 16.8 °F 4.3 °F 36% 30.50 in 10.0 mi NW 15.0 mph 19.6 mph N/A   Clear
11:15 AM 28.9 °F 17.7 °F 4.1 °F 35% 30.49 in 10.0 mi NW 15.0 mph - N/A   Clear
11:35 AM 29.3 °F 18.6 °F 3.2 °F 33% 30.48 in 10.0 mi NW 13.8 mph 20.7 mph N/A   Clear
11:55 AM 30.4 °F 20.0 °F 4.5 °F 33% 30.47 in 10.0 mi WNW 13.8 mph 18.4 mph N/A   Clear
12:15 PM 31.5 °F 22.9 °F 4.6 °F 32% 30.46 in 10.0 mi NW 10.4 mph 20.7 mph N/A   Clear
12:35 PM 32.0 °F 22.1 °F 4.6 °F 32% 30.45 in 10.0 mi NW 13.8 mph 18.4 mph N/A   Clear
12:55 PM 32.4 °F 24.0 °F 5.2 °F 32% 30.44 in 10.0 mi WNW 10.4 mph 18.4 mph N/A   Clear
1:15 PM 33.1 °F 24.9 °F 5.0 °F 31% 30.43 in 10.0 mi WNW 10.4 mph 16.1 mph N/A   Clear
1:35 PM 34.3 °F 26.5 °F 6.4 °F 31% 30.42 in 10.0 mi WNW 10.4 mph - N/A   Clear
1:55 PM 35.1 °F 27.9 °F 5.4 °F 29% 30.41 in 10.0 mi West 9.2 mph 17.3 mph N/A   Clear
2:15 PM 35.6 °F 28.0 °F 4.6 °F 27% 30.40 in 10.0 mi WNW 10.4 mph - N/A   Clear
2:35 PM 35.8 °F 28.3 °F 3.2 °F 25% 30.39 in 10.0 mi West 10.4 mph - N/A   Clear
2:55 PM 35.8 °F 27.3 °F 3.2 °F 25% 30.39 in 10.0 mi West 12.7 mph 17.3 mph N/A   Clear
3:15 PM 36.5 °F 28.7 °F 6.4 °F 29% 30.39 in 10.0 mi West 11.5 mph - N/A   Clear
3:35 PM 36.1 °F 28.2 °F 5.9 °F 28% 30.38 in 10.0 mi West 11.5 mph 19.6 mph N/A   Clear
3:55 PM 36.1 °F 26.9 °F 6.1 °F 29% 30.38 in 10.0 mi West 15.0 mph - N/A   Clear
4:15 PM 35.8 °F 27.3 °F 7.2 °F 30% 30.37 in 10.0 mi West 12.7 mph - N/A   Clear
4:35 PM 35.6 °F 28.6 °F 6.8 °F 30% 30.36 in 10.0 mi West 9.2 mph - N/A   Clear
4:55 PM 34.0 °F 26.0 °F 7.0 °F 32% 30.36 in 10.0 mi West 10.4 mph - N/A   Clear
5:15 PM 32.7 °F 26.4 °F 10.0 °F 39% 30.35 in 10.0 mi West 6.9 mph - N/A   Clear
5:35 PM 30.4 °F 24.5 °F 12.0 °F 47% 30.35 in 10.0 mi WSW 5.8 mph - N/A   Clear
5:55 PM 27.5 °F 20.2 °F 14.7 °F 59% 30.35 in 10.0 mi WSW 6.9 mph - N/A   Clear
6:15 PM 27.7 °F 21.3 °F 13.6 °F 56% 30.35 in 10.0 mi WSW 5.8 mph - N/A   Clear
6:35 PM 27.1 °F 21.8 °F 13.1 °F 56% 30.34 in 10.0 mi WSW 4.6 mph - N/A   Clear
6:55 PM 28.0 °F - 11.1 °F 49% 30.34 in 10.0 mi Calm Calm - N/A   Clear
7:15 PM 25.2 °F - 12.2 °F 58% 30.33 in 10.0 mi Calm Calm - N/A   Clear
7:35 PM 25.7 °F 21.5 °F 11.3 °F 55% 30.33 in 10.0 mi SW 3.5 mph - N/A   Clear
7:55 PM 25.3 °F 19.7 °F 11.5 °F 56% 30.33 in 10.0 mi SW 4.6 mph - N/A   Clear
8:15 PM 22.3 °F 14.9 °F 10.9 °F 62% 30.33 in 10.0 mi SSW 5.8 mph - N/A   Clear
8:35 PM 21.2 °F 16.4 °F 11.5 °F 66% 30.32 in 10.0 mi SSW 3.5 mph - N/A   Clear
8:55 PM 22.1 °F 17.4 °F 11.3 °F 63% 30.31 in 10.0 mi SSW 3.5 mph - N/A   Clear
9:15 PM 22.8 °F 16.7 °F 10.4 °F 59% 30.31 in 10.0 mi South 4.6 mph - N/A   Clear
9:35 PM 21.2 °F 13.6 °F 10.4 °F 63% 30.30 in 10.0 mi South 5.8 mph - N/A   Clear
9:55 PM 19.8 °F 11.9 °F 11.1 °F 69% 30.29 in 10.0 mi South 5.8 mph - N/A   Clear
10:15 PM 20.7 °F 14.2 °F 11.3 °F 67% 30.29 in 10.0 mi South 4.6 mph - N/A   Clear
10:35 PM 22.1 °F 15.9 °F 10.6 °F 61% 30.28 in 10.0 mi SSW 4.6 mph - N/A   Clear
10:55 PM 23.4 °F 17.4 °F 9.9 °F 56% 30.29 in 10.0 mi SSW 4.6 mph - N/A   Clear
11:15 PM 22.1 °F - 11.7 °F 64% 30.27 in 10.0 mi Calm Calm - N/A   Clear
11:35 PM 22.8 °F 18.2 °F 12.0 °F 63% 30.27 in 10.0 mi SSW 3.5 mph - N/A   Clear
11:55 PM 23.5 °F 19.1 °F 11.1 °F 59% 30.26 in 10.0 mi South 3.5 mph - N/A   Clear